Voltar ao catálogo

COSMOS 789 DEB

AtivoPO
NORAD 36299·DEBRIS·🇷🇺 Russia

Lançado Jan 20, 1976 de Plesetsk Cosmodrome

Loading…

Próximas Passagens (próximas 24 horas)

TLE

AtualizadoSource: Space-Track

Época: Sep 13, 2026, 09:08 UTC

1 36299U 76005C   26256.38110022  .00000560  00000-0  52073-3 0  9996
2 36299  82.9698 117.0221 0027645 245.0030 289.6293 13.80360713864082

Acompanhe COSMOS 789 DEB em tempo real com AllMySat

Download on the App Store